Location: An Tulaigh
(53.1928°N, 8.1647°W)
Time: 00:26:29
(UTC+00:00)

Cosmos 1461 - Pass Details

Date: 15 May 2026
Orbit: 422 x 476 km, 65.0° (Epoch: 9 June)

Event Time Altitude Azimuth Distance (km) Brightness Sun altitude
Rises 21:21:51 0° 204° (SSW) 2,531 6.0 -7.3°
Reaches altitude 10° 21:24:02 10° 198° (SSW) 1,654 5.0 -7.5°
Maximum altitude 21:27:34 44° 126° (SE) 674 2.8 -7.9°
Drops below altitude 10° 21:31:05 10° 53° (NE) 1,651 5.2 -8.2°
Sets 21:33:15 0° 47° (NE) 2,525 6.2 -8.4°
